Location: Ab? ar R?sh Ba?r?
(24.1861°N, 32.8847°E)
Time: 13:06:56
(UTC+00:00)

H-2A R/B - Pass Details

Date: 07 June 2022
Orbit: 576 x 653 km, 98.5° (Epoch: 28 June)

Event Time Altitude Azimuth Distance (km) Brightness Sun altitude
Rises 17:27:22 0° 20° (NNE) 2,823 5.6 -11.3°
Reaches altitude 10° 17:29:34 10° 26° (NNE) 1,930 4.7 -11.8°
Maximum altitude 17:33:38 48° 101° (E) 791 2.2 -12.5°
Drops below altitude 10° 17:37:45 10° 176° (S) 1,967 4.3 -13.3°
Enters shadow 17:39:09 - 180° (S) 2,530 4.9 -13.6°
